Погода в Конаклы

Турция     36°35′20″N   31°51′56″E
темп.,
°C
ветер,
м/с
пор.,
м/с
влажн.,
%
обл.,
%
осадки,
мм/ч
давл.,
гПа
погр.,
м
11 мая, вт
вт1100:00+22ссз33590 0.0 1010178
03:00+22в22400 0.0 100836
06:00+21в23410 0.0 1009173
09:00+22вюв11290 0.0 1010106
12:00+23ю11280 0.0 1010158
15:00+23ююв33450 0.0 1010307
18:00+23ю22550 0.0 1008137
21:00+22ссз11650 0.0 100911
12 мая, ср
ср1200:00+22ссз23595 0.0 100991
03:00+22сз22555 0.0 1008147
06:00+21ссв21515 0.0 1008121
09:00+22ююв11500 0.0 1010157
12:00+22ю22570 0.0 1010381
15:00+23ююв33595 0.0 1010415
18:00+23ю22610 0.0 1009357
21:00+22зсз22700 0.0 1010104
13 мая, чт
чт1300:00+21ссв2268100 0.0 1010185
03:00+21ссз1166100 0.0 1009171
06:00+21с11651 0.0 1010194
09:00+21юв11660 0.0 1011256
12:00+22ю33670 0.0 1012381
15:00+22ююз33646 0.0 1012472
18:00+22зюз33665 0.0 1012428
21:00+22зсз22685 0.0 1013284
14 мая, пт
пт1400:00+21сз22670 0.0 1012263
03:00+21зсз22620 0.0 1012346
06:00+21всв11620 0.0 1013238
09:00+21ююв22655 0.0 1013342
12:00+22ююз33675 0.0 1015430
15:00+22юз33675 0.0 1014447
18:00+22зюз326623 0.0 1014396
21:00+21зсз226734 0.0 1013330
15 мая, сб
сб1500:00+21сз22680 0.0 1013332
03:00+21зсз01680 0.0 1012223
06:00+21в11690 0.0 1012219
09:00+21ююв11680 0.0 1013222
12:00+22ю22660 0.0 1013227
15:00+22ююз11635 0.0 1012219
18:00+23зюз22625 0.0 1011340
21:00+22з1172100 0.0 101031